Time,TemperatureF,DewpointF,PressureIn,WindDirection,WindDirectionDegrees,WindSpeedMPH,WindSpeedGustMPH,Humidity,HourlyPrecipIn,Conditions,Clouds,dailyrainin,SoftwareType,DateUTC
2013-07-13 00:09:00,72.5,63.0,30.06,SE,132,0.0,4.0,73,0.00,,,0.00,weatherlink.com 1.10,2013-07-13 04:09:00,
2013-07-13 00:24:00,72.0,63.0,30.06,ESE,115,1.0,3.0,74,0.00,,,0.00,weatherlink.com 1.10,2013-07-13 04:24:00,
2013-07-13 00:39:00,71.5,63.0,30.06,East,89,1.0,2.0,75,0.00,,,0.00,weatherlink.com 1.10,2013-07-13 04:39:00,
2013-07-13 00:54:00,71.1,63.0,30.06,ESE,122,0.0,2.0,76,0.00,,,0.00,weatherlink.com 1.10,2013-07-13 04:54:00,
2013-07-13 01:09:00,70.9,63.0,30.06,ESE,111,1.0,2.0,77,0.00,,,0.00,weatherlink.com 1.10,2013-07-13 05:09:00,
2013-07-13 01:24:00,70.8,63.0,30.06,SE,142,0.0,3.0,76,0.00,,,0.00,weatherlink.com 1.10,2013-07-13 05:24:00,
2013-07-13 01:39:00,70.6,63.0,30.06,ESE,104,0.0,1.0,77,0.00,,,0.00,weatherlink.com 1.10,2013-07-13 05:39:00,
2013-07-13 01:54:00,70.2,63.0,30.05,WNW,294,0.0,0.0,77,0.00,,,0.00,weatherlink.com 1.10,2013-07-13 05:54:00,
2013-07-13 02:09:00,70.2,63.0,30.05,ESE,119,0.0,1.0,77,0.00,,,0.00,weatherlink.com 1.10,2013-07-13 06:09:00,
2013-07-13 02:24:00,69.9,63.0,30.06,SE,124,0.0,0.0,78,0.00,,,0.00,weatherlink.com 1.10,2013-07-13 06:24:00,
2013-07-13 02:39:00,70.0,63.0,30.05,East,99,1.0,2.0,79,0.00,,,0.00,weatherlink.com 1.10,2013-07-13 06:39:00,
2013-07-13 02:54:00,70.2,63.0,30.05,ESE,114,1.0,5.0,78,0.00,,,0.00,weatherlink.com 1.10,2013-07-13 06:54:00,
2013-07-13 03:09:00,70.1,63.0,30.05,ESE,109,0.0,2.0,78,0.00,,,0.00,weatherlink.com 1.10,2013-07-13 07:09:00,
2013-07-13 03:24:00,70.4,62.0,30.05,East,83,2.0,5.0,75,0.00,,,0.00,weatherlink.com 1.10,2013-07-13 07:24:00,
2013-07-13 03:39:00,70.5,62.0,30.05,ESE,110,0.0,2.0,75,0.00,,,0.00,weatherlink.com 1.10,2013-07-13 07:39:00,
2013-07-13 03:54:00,70.5,62.0,30.05,ESE,123,0.0,3.0,75,0.00,,,0.00,weatherlink.com 1.10,2013-07-13 07:54:00,
2013-07-13 04:09:00,70.3,62.0,30.05,NNE,13,0.0,2.0,75,0.00,,,0.00,weatherlink.com 1.10,2013-07-13 08:09:00,
2013-07-13 04:24:00,69.9,62.0,30.06,North,358,1.0,3.0,76,0.00,,,0.00,weatherlink.com 1.10,2013-07-13 08:24:00,
2013-07-13 04:39:00,69.8,62.0,30.07,NNW,329,0.0,2.0,76,0.00,,,0.00,weatherlink.com 1.10,2013-07-13 08:39:00,
2013-07-13 04:54:00,69.6,61.0,30.07,WNW,297,0.0,3.0,75,0.00,,,0.00,weatherlink.com 1.10,2013-07-13 08:54:00,
2013-07-13 05:09:00,69.5,61.0,30.07,WNW,301,0.0,2.0,75,0.00,,,0.00,weatherlink.com 1.10,2013-07-13 09:09:00,
2013-07-13 05:24:00,69.5,62.0,30.08,NNE,22,0.0,6.0,76,0.00,,,0.00,weatherlink.com 1.10,2013-07-13 09:24:00,
2013-07-13 05:39:00,69.2,61.0,30.07,WNW,302,0.0,2.0,75,0.00,,,0.00,weatherlink.com 1.10,2013-07-13 09:39:00,
2013-07-13 05:54:00,68.7,61.0,30.08,SW,214,0.0,3.0,76,0.00,,,0.00,weatherlink.com 1.10,2013-07-13 09:54:00,
2013-07-13 06:10:00,68.4,61.0,30.08,SW,215,0.0,3.0,77,0.00,,,0.00,weatherlink.com 1.10,2013-07-13 10:10:00,
2013-07-13 06:25:00,68.0,61.0,30.07,NW,311,3.0,3.0,79,0.00,,,0.00,weatherlink.com 1.10,2013-07-13 10:25:00,
2013-07-13 06:40:00,68.0,62.0,30.08,ESE,122,0.0,1.0,80,0.00,,,0.00,weatherlink.com 1.10,2013-07-13 10:40:00,
2013-07-13 06:55:00,67.9,62.0,30.08,ESE,119,1.0,3.0,80,0.00,,,0.00,weatherlink.com 1.10,2013-07-13 10:55:00,
2013-07-13 07:10:00,67.7,62.0,30.09,NNW,335,0.0,3.0,82,0.00,,,0.00,weatherlink.com 1.10,2013-07-13 11:10:00,
2013-07-13 07:25:00,67.7,62.0,30.09,NNE,25,0.0,3.0,83,0.00,,,0.00,weatherlink.com 1.10,2013-07-13 11:25:00,
2013-07-13 07:40:00,69.5,63.0,30.09,NNE,32,1.0,4.0,80,0.00,,,0.00,weatherlink.com 1.10,2013-07-13 11:40:00,
2013-07-13 07:55:00,70.4,63.0,30.09,NW,325,2.0,3.0,78,0.00,,,0.00,weatherlink.com 1.10,2013-07-13 11:55:00,
2013-07-13 08:10:00,71.1,64.0,30.09,SW,231,0.0,5.0,77,0.00,,,0.00,weatherlink.com 1.10,2013-07-13 12:10:00,
2013-07-13 08:25:00,71.7,64.0,30.09,SE,135,1.0,5.0,76,0.00,,,0.00,weatherlink.com 1.10,2013-07-13 12:25:00,
2013-07-13 08:40:00,72.6,64.0,30.10,ESE,115,0.0,3.0,75,0.00,,,0.00,weatherlink.com 1.10,2013-07-13 12:40:00,
2013-07-13 08:55:00,73.6,65.0,30.09,West,266,1.0,3.0,74,0.00,,,0.00,weatherlink.com 1.10,2013-07-13 12:55:00,
2013-07-13 09:10:00,74.4,65.0,30.09,SE,132,0.0,5.0,72,0.00,,,0.00,weatherlink.com 1.10,2013-07-13 13:10:00,
2013-07-13 09:25:00,75.4,65.0,30.09,SE,139,2.0,4.0,71,0.00,,,0.00,weatherlink.com 1.10,2013-07-13 13:25:00,
2013-07-13 09:40:00,75.6,66.0,30.10,ENE,58,2.0,6.0,72,0.00,,,0.00,weatherlink.com 1.10,2013-07-13 13:40:00,
2013-07-13 09:55:00,75.9,66.0,30.10,SE,136,0.0,5.0,72,0.00,,,0.00,weatherlink.com 1.10,2013-07-13 13:55:00,
2013-07-13 10:10:00,75.8,67.0,30.10,NW,316,1.0,4.0,73,0.00,,,0.00,weatherlink.com 1.10,2013-07-13 14:10:00,
2013-07-13 10:25:00,76.7,67.0,30.10,ESE,110,1.0,5.0,71,0.00,,,0.00,weatherlink.com 1.10,2013-07-13 14:25:00,
2013-07-13 10:40:00,77.3,67.0,30.11,NW,317,2.0,5.0,70,0.00,,,0.00,weatherlink.com 1.10,2013-07-13 14:40:00,
2013-07-13 10:55:00,77.8,66.0,30.10,ENE,75,2.0,4.0,68,0.00,,,0.00,weatherlink.com 1.10,2013-07-13 14:55:00,
2013-07-13 11:10:00,79.0,68.0,30.10,SSE,165,2.0,4.0,68,0.00,,,0.00,weatherlink.com 1.10,2013-07-13 15:10:00,
2013-07-13 11:25:00,80.0,67.0,30.10,ESE,110,5.0,13.0,65,0.00,,,0.00,weatherlink.com 1.10,2013-07-13 15:25:00,
2013-07-13 11:40:00,80.2,67.0,30.10,NW,308,2.0,4.0,65,0.00,,,0.00,weatherlink.com 1.10,2013-07-13 15:40:00,
2013-07-13 11:55:00,79.4,68.0,30.10,West,278,0.0,4.0,68,0.00,,,0.00,weatherlink.com 1.10,2013-07-13 15:55:00,
2013-07-13 12:10:00,80.5,67.0,30.10,WSW,248,1.0,4.0,63,0.00,,,0.00,weatherlink.com 1.10,2013-07-13 16:10:00,
2013-07-13 12:25:00,81.6,67.0,30.10,SE,133,0.0,4.0,62,0.00,,,0.00,weatherlink.com 1.10,2013-07-13 16:25:00,
2013-07-13 12:40:00,81.8,66.0,30.10,North,6,0.0,5.0,60,0.00,,,0.00,weatherlink.com 1.10,2013-07-13 16:40:00,
2013-07-13 12:55:00,82.6,67.0,30.09,SE,134,3.0,5.0,59,0.00,,,0.00,weatherlink.com 1.10,2013-07-13 16:55:00,
2013-07-13 13:10:00,82.4,67.0,30.09,ESE,122,4.0,7.0,59,0.00,,,0.00,weatherlink.com 1.10,2013-07-13 17:10:00,
2013-07-13 13:25:00,82.7,67.0,30.09,SE,146,2.0,6.0,59,0.00,,,0.00,weatherlink.com 1.10,2013-07-13 17:25:00,
2013-07-13 13:40:00,83.5,67.0,30.09,ESE,121,3.0,6.0,57,0.00,,,0.00,weatherlink.com 1.10,2013-07-13 17:40:00,
2013-07-13 13:55:00,84.8,67.0,30.09,SE,143,2.0,5.0,55,0.00,,,0.00,weatherlink.com 1.10,2013-07-13 17:55:00,
2013-07-13 14:11:00,84.6,67.0,30.09,SE,127,2.0,5.0,56,0.00,,,0.00,weatherlink.com 1.10,2013-07-13 18:11:00,
2013-07-13 14:26:00,85.2,69.0,30.08,NW,326,0.0,7.0,58,0.00,,,0.00,weatherlink.com 1.10,2013-07-13 18:26:00,
2013-07-13 14:41:00,85.0,66.0,30.08,SE,137,1.0,6.0,54,0.00,,,0.00,weatherlink.com 1.10,2013-07-13 18:41:00,
2013-07-13 14:56:00,85.6,68.0,30.08,SE,133,0.0,5.0,55,0.00,,,0.00,weatherlink.com 1.10,2013-07-13 18:56:00,
2013-07-13 15:11:00,86.3,69.0,30.08,ESE,118,0.0,5.0,56,0.00,,,0.00,weatherlink.com 1.10,2013-07-13 19:11:00,
2013-07-13 15:26:00,85.2,67.0,30.07,ESE,108,0.0,6.0,55,0.00,,,0.00,weatherlink.com 1.10,2013-07-13 19:26:00,
2013-07-13 15:41:00,85.4,67.0,30.07,WNW,300,0.0,9.0,55,0.00,,,0.00,weatherlink.com 1.10,2013-07-13 19:41:00,
2013-07-13 15:56:00,85.8,67.0,30.07,ESE,103,6.0,8.0,54,0.00,,,0.00,weatherlink.com 1.10,2013-07-13 19:56:00,
2013-07-13 16:11:00,86.7,67.0,30.08,ESE,110,3.0,7.0,52,0.00,,,0.00,weatherlink.com 1.10,2013-07-13 20:11:00,
2013-07-13 16:26:00,87.2,68.0,30.07,NW,309,2.0,7.0,53,0.00,,,0.00,weatherlink.com 1.10,2013-07-13 20:26:00,
2013-07-13 16:41:00,86.1,67.0,30.06,ESE,119,1.0,7.0,53,0.00,,,0.00,weatherlink.com 1.10,2013-07-13 20:41:00,
2013-07-13 16:56:00,86.5,67.0,30.06,South,184,1.0,6.0,53,0.00,,,0.00,weatherlink.com 1.10,2013-07-13 20:56:00,
2013-07-13 17:11:00,86.8,68.0,30.06,SE,129,2.0,6.0,54,0.00,,,0.00,weatherlink.com 1.10,2013-07-13 21:11:00,
2013-07-13 17:27:00,87.1,68.0,30.06,SE,131,2.0,7.0,54,0.00,,,0.00,weatherlink.com 1.10,2013-07-13 21:27:00,
2013-07-13 17:41:00,87.0,68.0,30.07,ESE,115,4.0,9.0,54,0.00,,,0.00,weatherlink.com 1.10,2013-07-13 21:41:00,
2013-07-13 17:56:00,86.9,68.0,30.06,ESE,109,2.0,10.0,53,0.00,,,0.00,weatherlink.com 1.10,2013-07-13 21:56:00,
2013-07-13 18:11:00,85.7,68.0,30.07,ESE,105,1.0,6.0,56,0.00,,,0.00,weatherlink.com 1.10,2013-07-13 22:11:00,
2013-07-13 18:26:00,84.7,68.0,30.07,ENE,70,0.0,5.0,58,0.00,,,0.00,weatherlink.com 1.10,2013-07-13 22:26:00,
2013-07-13 18:41:00,83.8,67.0,30.07,NNW,334,1.0,4.0,58,0.00,,,0.00,weatherlink.com 1.10,2013-07-13 22:41:00,
2013-07-13 18:56:00,83.0,67.0,30.06,East,91,1.0,5.0,59,0.00,,,0.00,weatherlink.com 1.10,2013-07-13 22:56:00,
2013-07-13 19:11:00,82.7,68.0,30.06,ESE,108,3.0,4.0,61,0.00,,,0.00,weatherlink.com 1.10,2013-07-13 23:11:00,
2013-07-13 19:26:00,84.0,68.0,30.06,East,101,5.0,6.0,59,0.00,,,0.00,weatherlink.com 1.10,2013-07-13 23:26:00,
2013-07-13 19:41:00,83.9,68.0,30.06,ESE,120,1.0,7.0,59,0.00,,,0.00,weatherlink.com 1.10,2013-07-13 23:41:00,
2013-07-13 19:56:00,82.7,67.0,30.07,SE,134,0.0,4.0,60,0.00,,,0.00,weatherlink.com 1.10,2013-07-13 23:56:00,
2013-07-13 20:11:00,82.4,68.0,30.08,SSE,158,5.0,6.0,62,0.00,,,0.00,weatherlink.com 1.10,2013-07-14 00:11:00,
2013-07-13 20:26:00,81.8,68.0,30.08,ESE,120,3.0,5.0,63,0.00,,,0.00,weatherlink.com 1.10,2013-07-14 00:26:00,
2013-07-13 20:41:00,81.4,68.0,30.08,SE,124,2.0,3.0,63,0.00,,,0.00,weatherlink.com 1.10,2013-07-14 00:41:00,
2013-07-13 20:56:00,80.8,68.0,30.07,ESE,121,1.0,3.0,65,0.00,,,0.00,weatherlink.com 1.10,2013-07-14 00:56:00,
2013-07-13 21:11:00,80.1,68.0,30.08,East,100,0.0,0.0,66,0.00,,,0.00,weatherlink.com 1.10,2013-07-14 01:11:00,
2013-07-13 21:26:00,79.5,68.0,30.08,ESE,108,0.0,0.0,68,0.00,,,0.00,weatherlink.com 1.10,2013-07-14 01:26:00,
2013-07-13 21:41:00,78.6,68.0,30.09,SE,135,0.0,2.0,70,0.00,,,0.00,weatherlink.com 1.10,2013-07-14 01:41:00,
2013-07-13 21:56:00,78.2,68.0,30.10,ESE,119,0.0,0.0,71,0.00,,,0.00,weatherlink.com 1.10,2013-07-14 01:56:00,
2013-07-13 22:11:00,77.6,68.0,30.11,North,353,0.0,0.0,73,0.00,,,0.00,weatherlink.com 1.10,2013-07-14 02:11:00,
2013-07-13 22:26:00,77.2,68.0,30.12,NE,56,0.0,0.0,73,0.00,,,0.00,weatherlink.com 1.10,2013-07-14 02:26:00,
2013-07-13 22:41:00,76.9,68.0,30.12,NE,43,0.0,0.0,74,0.00,,,0.00,weatherlink.com 1.10,2013-07-14 02:41:00,
2013-07-13 22:56:00,76.3,68.0,30.12,NE,43,0.0,0.0,76,0.00,,,0.00,weatherlink.com 1.10,2013-07-14 02:56:00,
2013-07-13 23:11:00,75.9,68.0,30.12,NE,43,0.0,0.0,77,0.00,,,0.00,weatherlink.com 1.10,2013-07-14 03:11:00,
2013-07-13 23:26:00,75.7,68.0,30.12,NE,43,0.0,0.0,78,0.00,,,0.00,weatherlink.com 1.10,2013-07-14 03:26:00,
2013-07-13 23:41:00,75.4,68.0,30.13,NE,43,0.0,0.0,78,0.00,,,0.00,weatherlink.com 1.10,2013-07-14 03:41:00,
2013-07-13 23:56:00,75.5,68.0,30.12,NW,321,0.0,2.0,78,0.00,,,0.00,weatherlink.com 1.10,2013-07-14 03:56:00,